Regional Weather Roundup
Issued by NWS

Home | Current Version | Previous Version | Graphics & Text | Print | Product List | Glossary On
Versions: 1 2 3 4 5 6 7 8 9 10 11 12 13 14 15 16 17 18 19 20 21 22 23 24 25 26 27 28 29 30 31 32 33 34 35 36 37 38 39 40 41 42 43 44 45 46 47 48 49 50
000
ASUS43 KLMK 190402
RWRKY
KENTUCKY REGIONAL WEATHER ROUNDUP
NATIONAL WEATHER SERVICE LOUISVILLE KY
1100 PM EST SAT FEB 18 2017

NOTE "FAIR" INDICATES FEW OR NO CLOUDS BELOW 12,000 FEET
WITH NO SIGNIFICANT WEATHER AND/OR OBSTRUCTIONS TO VISIBILITY.

KYZ001>023-026-027-061>063-070>075-190500-
WESTERN AND SOUTH CENTRAL KENTUCKY

CITY           SKY/WX    TMP DP  RH WIND       PRES   REMARKS
PADUCAH        CLOUDY    52  49  89 CALM      29.94R FOG
HENDERSON      CLOUDY    50  46  87 S7        29.93R
OWENSBORO      CLOUDY    49  48  97 SW5       29.95R
HOPKINSVILLE   MOCLDY    51  51 100 CALM      29.95R
BOWLING GREEN  CLOUDY    51  46  83 SW6       29.95S
GLASGOW        NOT AVBL
$$

KYZ024-025-028>034-038-045-046-053-190500-
NORTH CENTRAL KENTUCKY

CITY           SKY/WX    TMP DP  RH WIND       PRES   REMARKS
LOUISVILLE/SDF CLOUDY    51  47  86 SW6       29.94R
LOUISVILLE/LOU CLOUDY    50  47  89 S3        29.95R FOG
FORT KNOX      CLOUDY    49  49 100 CALM      29.93R
$$

KYZ035>037-039>044-047>052-055>060-089>105-190500-
NORTHEAST KENTUCKY

CITY           SKY/WX    TMP DP  RH WIND       PRES   REMARKS
LEXINGTON      LGT RAIN  47  43  86 SW5       29.94R
COVINGTON      CLOUDY    51  47  86 SW9       29.90S
FRANKFORT      CLOUDY    49  45  86 SW5       29.93R FOG
$$

KYZ054-064>069-076>088-106>120-190500-
SOUTHEAST KENTUCKY

CITY           SKY/WX    TMP DP  RH WIND       PRES   REMARKS
JACKSON        FOG       46  45  96 CALM      29.94S VSB 1/2
LONDON         CLOUDY    48  45  89 CALM      29.96R FOG
SOMERSET       CLOUDY    45  45 100 CALM      29.98R
MIDDLESBORO    CLOUDY    47  47 100 CALM      29.97S FOG
MONTICELLO     CLOUDY    46  44  93 W3        29.98S
$$




USA.gov is the U.S. government's official web portal to all federal, state and local government web resources and services.